Flag for U.S.A. Weather past 2 weeks in St. Paul, Minnesota, U.S.A.

Now
70 °F

Mostly cloudy.


Feels Like: 75 °F
Forecast: 60 / 71 °F
Wind: 12 mph from North

Location: St. Paul Downtown Holman Field

Current Time: Jul 6, 2015 at 5:35:39 PM

Latest Report: Jul 6, 2015 at 4:53 PM


Visibility: 1 mi

Pressure: 29.93 "Hg

Humidity: 66%

Dew point: 58 °F

Location of St. PaulLocation

Historic Weather in St. Paul — Graph

°F

St. Paul temperature yesterday

Maximum temperature yesterday: 86 °F (at 3:53 PM)
Minimum temperature yesterday: 64 °F (at 5:53 AM)
Average temperature yesterday: 76 °F

Past Weeks' High & Low Weather Summary

 TemperatureHumidityPressure
High86 °F (Jul 5, 3:53 PM)100% (Jun 22, 8:59 AM)30.11 "Hg (Jun 22, 8:59 AM)
Low55 °F (Jul 2, 4:53 AM)36% (Jun 21, 4:53 PM)29.47 "Hg (Jun 22, 9:53 AM)
Average70 °F71%29.93 "Hg
* Reported Jun 21 3:53 PM — Jul 6 3:53 PM, St. Paul, Weather by CustomWeather, © 2015

Note: Actual official high and low records may vary slightly from our data, if they occured in-between our weather recording intervals... More about our weather records

Advertising

St. Paul weather history for previous 24 hours

 ConditionsComfort  
Time TempWeatherWind HumidityBarometerVisibility
3:53 PM
Mon, Jul 6
70 °FMostly cloudy.20 mph66%29.91 "Hg1 mi
2:53 PM67 °FCloudy.17 mph79%29.91 "Hg2 mi
1:53 PM64 °FLight rain. Fog.7 mph87%29.89 "Hg2 mi
12:53 PM65 °FLight rain. Fog.17 mph87%29.87 "Hg2 mi
11:53 AM68 °FLight rain. Mostly cloudy.22 mph90%29.83 "Hg10 mi
10:53 AM73 °FMostly cloudy.13 mph90%29.79 "Hg10 mi
9:53 AM72 °FLow clouds.No wind93%29.78 "Hg10 mi
9:01 AM71 °FMostly cloudy.6 mph93%29.77 "Hg10 mi
7:53 AM69 °FLight rain. Fog.3 mph96%29.77 "Hg3 mi
6:53 AM69 °FRain. Fog.5 mph96%29.79 "Hg4 mi
5:53 AM69 °FHeavy rain. Fog.10 mph96%29.83 "Hg4 mi
4:53 AM69 °FHeavy rain. Fog.9 mph93%29.80 "Hg3 mi
4:01 AM69 °FHeavy rain. Fog.14 mph96%29.79 "Hg2 mi
2:53 AM72 °FThunderstorms. Fog.10 mph93%29.76 "Hg5 mi
2:00 AM72 °FStrong thunderstorms. Fog.6 mph97%29.80 "Hg2 mi
1:04 AM74 °FStrong thunderstorms. Fog.6 mph88%29.83 "Hg2 mi
12:53 AM76 °FThunderstorms. Passing clouds.5 mph77%29.80 "Hg8 mi
11:53 PM
Sun, Jul 5
76 °FOvercast.7 mph77%29.81 "Hg8 mi
10:53 PM77 °FClear.10 mph74%29.78 "Hg9 mi
9:53 PM78 °FSunny.10 mph71%29.78 "Hg9 mi
8:53 PM80 °FSunny.12 mph69%29.78 "Hg9 mi
7:53 PM82 °FBroken clouds.17 mph65%29.80 "Hg10 mi
6:53 PM83 °FPartly sunny.21 mph65%29.80 "Hg10 mi
5:53 PM85 °FPassing clouds.18 mph63%29.81 "Hg10 mi
Weather by CustomWeather, © 2015

See weather overviewHow to use our weather pages